Year,Month,Day,Hour,Minute,Value (Times are PST for temperature in C)
2016,08,12,00,00,17.60
2016,08,12,00,01,17.80
2016,08,12,00,02,18.00
2016,08,12,00,03,18.20
2016,08,12,00,04,18.30
2016,08,12,00,05,18.30
2016,08,12,00,06,18.30
2016,08,12,00,07,18.30
2016,08,12,00,08,18.40
2016,08,12,00,09,18.50
2016,08,12,00,10,18.60
2016,08,12,00,11,18.70
2016,08,12,00,12,18.80
2016,08,12,00,13,18.80
2016,08,12,00,14,18.80
2016,08,12,00,15,18.70
2016,08,12,00,16,18.60
2016,08,12,00,17,18.50
2016,08,12,00,18,18.40
2016,08,12,00,19,18.20
2016,08,12,00,20,18.10
2016,08,12,00,21,18.00
2016,08,12,00,22,17.90
2016,08,12,00,23,17.80
2016,08,12,00,24,17.80
2016,08,12,00,25,17.90
2016,08,12,00,26,18.10
2016,08,12,00,27,18.30
2016,08,12,00,28,18.30
2016,08,12,00,29,18.30
2016,08,12,00,30,18.10
2016,08,12,00,31,17.90
2016,08,12,00,32,17.80
2016,08,12,00,33,17.60
2016,08,12,00,34,17.60
2016,08,12,00,35,17.50
2016,08,12,00,36,17.40
2016,08,12,00,37,17.30
2016,08,12,00,38,17.30
2016,08,12,00,39,17.40
2016,08,12,00,40,17.40
2016,08,12,00,41,17.50
2016,08,12,00,42,17.50
2016,08,12,00,43,17.50
2016,08,12,00,44,17.40
2016,08,12,00,45,17.40
2016,08,12,00,46,17.30
2016,08,12,00,47,17.30
2016,08,12,00,48,17.20
2016,08,12,00,49,17.20
2016,08,12,00,50,17.10
2016,08,12,00,51,17.00
2016,08,12,00,52,16.90
2016,08,12,00,53,16.90
2016,08,12,00,54,16.90
2016,08,12,00,55,16.80
2016,08,12,00,56,16.80
2016,08,12,00,57,16.80
2016,08,12,00,58,16.80
2016,08,12,00,59,16.80
2016,08,12,01,00,16.80
2016,08,12,01,01,16.80
2016,08,12,01,02,16.80
2016,08,12,01,03,16.70
2016,08,12,01,04,16.80
2016,08,12,01,05,16.80
2016,08,12,01,06,16.80
2016,08,12,01,07,16.90
2016,08,12,01,08,16.90
2016,08,12,01,09,16.90
2016,08,12,01,10,16.90
2016,08,12,01,11,17.00
2016,08,12,01,12,16.90
2016,08,12,01,13,16.80
2016,08,12,01,14,16.80
2016,08,12,01,15,16.70
2016,08,12,01,16,16.70
2016,08,12,01,17,16.60
2016,08,12,01,18,16.50
2016,08,12,01,19,16.50
2016,08,12,01,20,16.40
2016,08,12,01,21,16.30
2016,08,12,01,22,16.30
2016,08,12,01,23,16.30
2016,08,12,01,24,16.20
2016,08,12,01,25,16.20
2016,08,12,01,26,16.20
2016,08,12,01,27,16.20
2016,08,12,01,28,16.20
2016,08,12,01,29,16.20
2016,08,12,01,30,16.10
2016,08,12,01,31,16.10
2016,08,12,01,32,16.10
2016,08,12,01,33,16.10
2016,08,12,01,34,16.10
2016,08,12,01,35,16.10
2016,08,12,01,36,16.20
2016,08,12,01,37,16.10
2016,08,12,01,38,16.10
2016,08,12,01,39,16.10
2016,08,12,01,40,16.10
2016,08,12,01,41,16.00
2016,08,12,01,42,16.00
2016,08,12,01,43,15.90
2016,08,12,01,44,15.90
2016,08,12,01,45,15.80
2016,08,12,01,46,15.80
2016,08,12,01,47,15.80
2016,08,12,01,48,15.80
2016,08,12,01,49,15.80
2016,08,12,01,50,15.70
2016,08,12,01,51,15.70
2016,08,12,01,52,15.60
2016,08,12,01,53,15.50
2016,08,12,01,54,15.50
2016,08,12,01,55,15.50
2016,08,12,01,56,15.40
2016,08,12,01,57,15.40
2016,08,12,01,58,15.30
2016,08,12,01,59,15.30
2016,08,12,02,00,15.20
2016,08,12,02,01,15.10
2016,08,12,02,02,15.00
2016,08,12,02,03,14.90
2016,08,12,02,04,14.80
2016,08,12,02,05,14.80
2016,08,12,02,06,14.70
2016,08,12,02,07,14.80
2016,08,12,02,08,14.80
2016,08,12,02,09,14.70
2016,08,12,02,10,14.70
2016,08,12,02,11,14.60
2016,08,12,02,12,14.60
2016,08,12,02,13,14.50
2016,08,12,02,14,14.40
2016,08,12,02,15,14.40
2016,08,12,02,16,14.30
2016,08,12,02,17,14.30
2016,08,12,02,18,14.30
2016,08,12,02,19,14.30
2016,08,12,02,20,14.30
2016,08,12,02,21,14.30
2016,08,12,02,22,14.30
2016,08,12,02,23,14.30
2016,08,12,02,24,14.40
2016,08,12,02,25,14.50
2016,08,12,02,26,14.60
2016,08,12,02,27,14.60
2016,08,12,02,28,14.60
2016,08,12,02,29,14.60
2016,08,12,02,30,14.70
2016,08,12,02,31,14.70
2016,08,12,02,32,14.80
2016,08,12,02,33,14.80
2016,08,12,02,34,14.90
2016,08,12,02,35,15.00
2016,08,12,02,36,15.00
2016,08,12,02,37,15.10
2016,08,12,02,38,15.10
2016,08,12,02,39,15.20
2016,08,12,02,40,15.20
2016,08,12,02,41,15.20
2016,08,12,02,42,15.20
2016,08,12,02,43,15.20
2016,08,12,02,44,15.20
2016,08,12,02,45,15.20
2016,08,12,02,46,15.20
2016,08,12,02,47,15.20
2016,08,12,02,48,15.20
2016,08,12,02,49,15.20
2016,08,12,02,50,15.30
2016,08,12,02,51,15.30
2016,08,12,02,52,15.30
2016,08,12,02,53,15.30
2016,08,12,02,54,15.30
2016,08,12,02,55,15.40
2016,08,12,02,56,15.60
2016,08,12,02,57,15.60
2016,08,12,02,58,15.60
2016,08,12,02,59,15.60
2016,08,12,03,00,15.60
2016,08,12,03,01,15.70
2016,08,12,03,02,15.70
2016,08,12,03,03,15.70
2016,08,12,03,04,15.70
2016,08,12,03,05,15.70
2016,08,12,03,06,15.70
2016,08,12,03,07,15.70
2016,08,12,03,08,15.70
2016,08,12,03,09,15.70
2016,08,12,03,10,15.70
2016,08,12,03,11,15.70
2016,08,12,03,12,15.70
2016,08,12,03,13,15.70
2016,08,12,03,14,15.70
2016,08,12,03,15,15.70
2016,08,12,03,16,15.70
2016,08,12,03,17,15.60
2016,08,12,03,18,15.60
2016,08,12,03,19,15.60
2016,08,12,03,20,15.60
2016,08,12,03,21,15.60
2016,08,12,03,22,15.60
2016,08,12,03,23,15.60
2016,08,12,03,24,15.60
2016,08,12,03,25,15.70
2016,08,12,03,26,15.70
2016,08,12,03,27,15.70
2016,08,12,03,28,15.80
2016,08,12,03,29,15.90
2016,08,12,03,30,16.00
2016,08,12,03,31,16.10
2016,08,12,03,32,16.20
2016,08,12,03,33,16.30
2016,08,12,03,34,16.30
2016,08,12,03,35,16.30
2016,08,12,03,36,16.30
2016,08,12,03,37,16.40
2016,08,12,03,38,16.50
2016,08,12,03,39,16.60
2016,08,12,03,40,16.70
2016,08,12,03,41,16.70
2016,08,12,03,42,16.80
2016,08,12,03,43,16.80
2016,08,12,03,44,16.80
2016,08,12,03,45,16.90
2016,08,12,03,46,17.00
2016,08,12,03,47,17.00
2016,08,12,03,48,17.10
2016,08,12,03,49,17.10
2016,08,12,03,50,17.10
2016,08,12,03,51,17.10
2016,08,12,03,52,17.10
2016,08,12,03,53,17.10
2016,08,12,03,54,17.20
2016,08,12,03,55,17.20
2016,08,12,03,56,17.30
2016,08,12,03,57,17.30
2016,08,12,03,58,17.30
2016,08,12,03,59,17.30
2016,08,12,04,00,17.20
2016,08,12,04,01,17.20
2016,08,12,04,02,17.20
2016,08,12,04,03,17.20
2016,08,12,04,04,17.20
2016,08,12,04,05,17.20
2016,08,12,04,06,17.20
2016,08,12,04,07,17.30
2016,08,12,04,08,17.30
2016,08,12,04,09,17.30
2016,08,12,04,10,17.20
2016,08,12,04,11,17.20
2016,08,12,04,12,17.20
2016,08,12,04,13,17.20
2016,08,12,04,14,17.20
2016,08,12,04,15,17.20
2016,08,12,04,16,17.20
2016,08,12,04,17,17.20
2016,08,12,04,18,17.20
2016,08,12,04,19,17.20
2016,08,12,04,20,17.20
2016,08,12,04,21,17.20
2016,08,12,04,22,17.20
2016,08,12,04,23,17.20
2016,08,12,04,24,17.20
2016,08,12,04,25,17.20
2016,08,12,04,26,17.20
2016,08,12,04,27,17.20
2016,08,12,04,28,17.20
2016,08,12,04,29,17.20
2016,08,12,04,30,17.20
2016,08,12,04,31,17.10
2016,08,12,04,32,17.10
2016,08,12,04,33,17.00
2016,08,12,04,34,17.00
2016,08,12,04,35,16.90
2016,08,12,04,36,16.90
2016,08,12,04,37,16.90
2016,08,12,04,38,16.90
2016,08,12,04,39,16.90
2016,08,12,04,40,16.80
2016,08,12,04,41,16.80
2016,08,12,04,42,16.80
2016,08,12,04,43,16.70
2016,08,12,04,44,16.70
2016,08,12,04,45,16.70
2016,08,12,04,46,16.70
2016,08,12,04,47,16.70
2016,08,12,04,48,16.70
2016,08,12,04,49,16.70
2016,08,12,04,50,16.70
2016,08,12,04,51,16.80
2016,08,12,04,52,16.80
2016,08,12,04,53,16.80
2016,08,12,04,54,16.80
2016,08,12,04,55,16.80
2016,08,12,04,56,16.80
2016,08,12,04,57,16.80
2016,08,12,04,58,16.90
2016,08,12,04,59,16.90
2016,08,12,05,00,16.90
2016,08,12,05,01,16.90
2016,08,12,05,02,17.00
2016,08,12,05,03,17.10
2016,08,12,05,04,17.10
2016,08,12,05,05,17.20
2016,08,12,05,06,17.30
2016,08,12,05,07,17.40
2016,08,12,05,08,17.50
2016,08,12,05,09,17.50
2016,08,12,05,10,17.60
2016,08,12,05,11,17.60
2016,08,12,05,12,17.70
2016,08,12,05,13,17.70
2016,08,12,05,14,17.80
2016,08,12,05,15,17.80
2016,08,12,05,16,17.80
2016,08,12,05,17,17.80
2016,08,12,05,18,17.80
2016,08,12,05,19,17.70
2016,08,12,05,20,17.70
2016,08,12,05,21,17.70
2016,08,12,05,22,17.70
2016,08,12,05,23,17.60
2016,08,12,05,24,17.60
2016,08,12,05,25,17.60
2016,08,12,05,26,17.60
2016,08,12,05,27,17.60
2016,08,12,05,28,17.60
2016,08,12,05,29,17.60
2016,08,12,05,30,17.60
2016,08,12,05,31,17.60
2016,08,12,05,32,17.60
2016,08,12,05,33,17.50
2016,08,12,05,34,17.50
2016,08,12,05,35,17.60
2016,08,12,05,36,17.60
2016,08,12,05,37,17.60
2016,08,12,05,38,17.60
2016,08,12,05,39,17.60
2016,08,12,05,40,17.70
2016,08,12,05,41,17.70
2016,08,12,05,42,17.70
2016,08,12,05,43,17.70
2016,08,12,05,44,17.70
2016,08,12,05,45,17.70
2016,08,12,05,46,17.70
2016,08,12,05,47,17.70
2016,08,12,05,48,17.70
2016,08,12,05,49,17.60
2016,08,12,05,50,17.50
2016,08,12,05,51,17.40
2016,08,12,05,52,17.30
2016,08,12,05,53,17.10
2016,08,12,05,54,17.10
2016,08,12,05,55,17.10
2016,08,12,05,56,17.10
2016,08,12,05,57,17.20
2016,08,12,05,58,17.20
2016,08,12,05,59,17.30
2016,08,12,06,00,17.30
2016,08,12,06,01,17.30
2016,08,12,06,02,17.30
2016,08,12,06,03,17.30
2016,08,12,06,04,17.30
2016,08,12,06,05,17.20
2016,08,12,06,06,17.10
2016,08,12,06,07,16.90
2016,08,12,06,08,16.60
2016,08,12,06,09,16.30
2016,08,12,06,10,16.20
2016,08,12,06,11,16.10
2016,08,12,06,12,16.00
2016,08,12,06,13,15.90
2016,08,12,06,14,15.80
2016,08,12,06,15,15.60
2016,08,12,06,16,15.50
2016,08,12,06,17,15.40
2016,08,12,06,18,15.40
2016,08,12,06,19,15.30
2016,08,12,06,20,15.30
2016,08,12,06,21,15.30
2016,08,12,06,22,15.30
2016,08,12,06,23,15.40
2016,08,12,06,24,15.50
2016,08,12,06,25,15.50
2016,08,12,06,26,15.40
2016,08,12,06,27,15.30
2016,08,12,06,28,15.30
2016,08,12,06,29,15.30
2016,08,12,06,30,15.30
2016,08,12,06,31,15.30
2016,08,12,06,32,15.20
2016,08,12,06,33,15.20
2016,08,12,06,34,15.20
2016,08,12,06,35,15.10
2016,08,12,06,36,15.10
2016,08,12,06,37,15.10
2016,08,12,06,38,15.00
2016,08,12,06,39,14.90
2016,08,12,06,40,14.80
2016,08,12,06,41,14.80
2016,08,12,06,42,14.80
2016,08,12,06,43,14.80
2016,08,12,06,44,14.90
2016,08,12,06,45,14.90
2016,08,12,06,46,15.00
2016,08,12,06,47,15.10
2016,08,12,06,48,15.30
2016,08,12,06,49,15.40
2016,08,12,06,50,15.50
2016,08,12,06,51,15.70
2016,08,12,06,52,15.70
2016,08,12,06,53,15.80
2016,08,12,06,54,15.90
2016,08,12,06,55,15.90
2016,08,12,06,56,15.90
2016,08,12,06,57,15.90
2016,08,12,06,58,15.90
2016,08,12,06,59,15.80
2016,08,12,07,00,15.70
2016,08,12,07,01,15.60
2016,08,12,07,02,15.50
2016,08,12,07,03,15.40
2016,08,12,07,04,15.40
2016,08,12,07,05,15.40
2016,08,12,07,06,15.40
2016,08,12,07,07,15.40
2016,08,12,07,08,15.40
2016,08,12,07,09,15.40
2016,08,12,07,10,15.40
2016,08,12,07,11,15.40
2016,08,12,07,12,15.40
2016,08,12,07,13,15.50
2016,08,12,07,14,15.50
2016,08,12,07,15,15.50
2016,08,12,07,16,15.50
2016,08,12,07,17,15.40
2016,08,12,07,18,15.30
2016,08,12,07,19,15.10
2016,08,12,07,20,15.10
2016,08,12,07,21,15.10
2016,08,12,07,22,15.10
2016,08,12,07,23,15.20
2016,08,12,07,24,15.30
2016,08,12,07,25,15.30
2016,08,12,07,26,15.30
2016,08,12,07,27,15.30
2016,08,12,07,28,15.30
2016,08,12,07,29,15.30
2016,08,12,07,30,15.30
2016,08,12,07,31,15.20
2016,08,12,07,32,15.20
2016,08,12,07,33,15.30
2016,08,12,07,34,15.30
2016,08,12,07,35,15.30
2016,08,12,07,36,15.30
2016,08,12,07,37,15.20
2016,08,12,07,38,15.00
2016,08,12,07,39,14.80
2016,08,12,07,40,14.70
2016,08,12,07,41,14.70
2016,08,12,07,42,14.60
2016,08,12,07,43,14.60
2016,08,12,07,44,14.70
2016,08,12,07,45,14.80
2016,08,12,07,46,14.90
2016,08,12,07,47,15.00
2016,08,12,07,48,15.10
2016,08,12,07,49,15.20
2016,08,12,07,50,15.20
2016,08,12,07,51,15.30
2016,08,12,07,52,15.30
2016,08,12,07,53,15.30
2016,08,12,07,54,15.40
2016,08,12,07,55,15.50
2016,08,12,07,56,15.50
2016,08,12,07,57,15.70
2016,08,12,07,58,15.70
2016,08,12,07,59,15.60
2016,08,12,08,00,15.70
2016,08,12,08,01,15.70
2016,08,12,08,02,15.70
2016,08,12,08,03,15.80
2016,08,12,08,04,15.80
2016,08,12,08,05,15.90
2016,08,12,08,06,15.90
2016,08,12,08,07,15.90
2016,08,12,08,08,15.80
2016,08,12,08,09,15.60
2016,08,12,08,10,15.50
2016,08,12,08,11,15.40
2016,08,12,08,12,15.40
2016,08,12,08,13,15.50
2016,08,12,08,14,15.60
2016,08,12,08,15,15.70
2016,08,12,08,16,15.70
2016,08,12,08,17,15.80
2016,08,12,08,18,15.60
2016,08,12,08,19,15.40
2016,08,12,08,20,15.30
2016,08,12,08,21,15.20
2016,08,12,08,22,15.10
2016,08,12,08,23,15.00
2016,08,12,08,24,15.10
2016,08,12,08,25,15.20
2016,08,12,08,26,15.30
2016,08,12,08,27,15.40
2016,08,12,08,28,15.40
2016,08,12,08,29,15.40
2016,08,12,08,30,15.50
2016,08,12,08,31,15.40
2016,08,12,08,32,15.40
2016,08,12,08,33,15.40
2016,08,12,08,34,15.30
2016,08,12,08,35,15.20
2016,08,12,08,36,15.20
2016,08,12,08,37,15.10
2016,08,12,08,38,15.10
2016,08,12,08,39,15.10
2016,08,12,08,40,15.10
2016,08,12,08,41,15.10
2016,08,12,08,42,15.10
2016,08,12,08,43,15.20
2016,08,12,08,44,15.20
2016,08,12,08,45,15.30
2016,08,12,08,46,15.40
2016,08,12,08,47,15.40
2016,08,12,08,48,15.50
2016,08,12,08,49,15.50
2016,08,12,08,50,15.60
2016,08,12,08,51,15.60
2016,08,12,08,52,15.60
2016,08,12,08,53,15.50
2016,08,12,08,54,15.50
2016,08,12,08,55,15.40
2016,08,12,08,56,15.40
2016,08,12,08,57,15.40
2016,08,12,08,58,15.40
2016,08,12,08,59,15.40
2016,08,12,09,00,15.40
2016,08,12,09,01,15.30
2016,08,12,09,02,15.40
2016,08,12,09,03,15.40
2016,08,12,09,04,15.40
2016,08,12,09,05,15.40
2016,08,12,09,06,15.50
2016,08,12,09,07,15.50
2016,08,12,09,08,15.60
2016,08,12,09,09,15.60
2016,08,12,09,10,15.70
2016,08,12,09,11,15.70
2016,08,12,09,12,15.80
2016,08,12,09,13,15.80
2016,08,12,09,14,15.90
2016,08,12,09,15,15.90
2016,08,12,09,16,16.00
2016,08,12,09,17,16.00
2016,08,12,09,18,16.10
2016,08,12,09,19,16.10
2016,08,12,09,20,16.10
2016,08,12,09,21,16.10
2016,08,12,09,22,16.10
2016,08,12,09,23,16.10
2016,08,12,09,24,16.10
2016,08,12,09,25,16.10
2016,08,12,09,26,16.10
2016,08,12,09,27,16.10
2016,08,12,09,28,16.10
2016,08,12,09,29,16.10
2016,08,12,09,30,16.10
2016,08,12,09,31,16.10
2016,08,12,09,32,16.20
2016,08,12,09,33,16.20
2016,08,12,09,34,16.10
2016,08,12,09,35,16.10
2016,08,12,09,36,16.20
2016,08,12,09,37,16.10
2016,08,12,09,38,16.10
2016,08,12,09,39,16.10
2016,08,12,09,40,16.10
2016,08,12,09,41,16.00
2016,08,12,09,42,16.00
2016,08,12,09,43,15.90
2016,08,12,09,44,15.90
2016,08,12,09,45,15.90
2016,08,12,09,46,15.90
2016,08,12,09,47,16.00
2016,08,12,09,48,16.00
2016,08,12,09,49,16.10
2016,08,12,09,50,16.20
2016,08,12,09,51,16.20
2016,08,12,09,52,16.30
2016,08,12,09,53,16.30
2016,08,12,09,54,16.30
2016,08,12,09,55,16.40
2016,08,12,09,56,16.40
2016,08,12,09,57,16.40
2016,08,12,09,58,16.40
2016,08,12,09,59,16.40
2016,08,12,10,00,16.40
2016,08,12,10,01,16.40
2016,08,12,10,02,16.40
2016,08,12,10,03,16.40
2016,08,12,10,04,16.40
2016,08,12,10,05,16.50
2016,08,12,10,06,16.50
2016,08,12,10,07,16.60
2016,08,12,10,08,16.60
2016,08,12,10,09,16.60
2016,08,12,10,10,16.60
2016,08,12,10,11,16.60
2016,08,12,10,12,16.60
2016,08,12,10,13,16.70
2016,08,12,10,14,16.70
2016,08,12,10,15,16.70
2016,08,12,10,16,16.70
2016,08,12,10,17,16.80
2016,08,12,10,18,16.80
2016,08,12,10,19,16.80
2016,08,12,10,20,16.90
2016,08,12,10,21,16.90
2016,08,12,10,22,17.00
2016,08,12,10,23,17.10
2016,08,12,10,24,17.10
2016,08,12,10,25,17.10
2016,08,12,10,26,17.20
2016,08,12,10,27,17.20
2016,08,12,10,28,17.20
2016,08,12,10,29,17.20
2016,08,12,10,30,17.20
2016,08,12,10,31,17.20
2016,08,12,10,32,17.20
2016,08,12,10,33,17.20
2016,08,12,10,34,17.30
2016,08,12,10,35,17.30
2016,08,12,10,36,17.30
2016,08,12,10,37,17.20
2016,08,12,10,38,17.30
2016,08,12,10,39,17.30
2016,08,12,10,40,17.30
2016,08,12,10,41,17.30
2016,08,12,10,42,17.30
2016,08,12,10,43,17.30
2016,08,12,10,44,17.40
2016,08,12,10,45,17.40
2016,08,12,10,46,17.40
2016,08,12,10,47,17.40
2016,08,12,10,48,17.40
2016,08,12,10,49,17.40
2016,08,12,10,50,17.40
2016,08,12,10,51,17.40
2016,08,12,10,52,17.50
2016,08,12,10,53,17.50
2016,08,12,10,54,17.50
2016,08,12,10,55,17.60
2016,08,12,10,56,17.60
2016,08,12,10,57,17.60
2016,08,12,10,58,17.60
2016,08,12,10,59,17.60
2016,08,12,11,00,17.60
2016,08,12,11,01,17.60
2016,08,12,11,02,17.60
2016,08,12,11,03,17.60
2016,08,12,11,04,17.70
2016,08,12,11,05,17.70
2016,08,12,11,06,17.70
2016,08,12,11,07,17.70
2016,08,12,11,08,17.70
2016,08,12,11,09,17.70
2016,08,12,11,10,17.80
2016,08,12,11,11,17.80
2016,08,12,11,12,17.80
2016,08,12,11,13,17.80
2016,08,12,11,14,17.90
2016,08,12,11,15,17.90
2016,08,12,11,16,17.90
2016,08,12,11,17,17.90
2016,08,12,11,18,18.00
2016,08,12,11,19,18.00
2016,08,12,11,20,18.10
2016,08,12,11,21,18.10
2016,08,12,11,22,18.10
2016,08,12,11,23,18.10
2016,08,12,11,24,18.10
2016,08,12,11,25,18.10
2016,08,12,11,26,18.10
2016,08,12,11,27,18.10
2016,08,12,11,28,18.20
2016,08,12,11,29,18.20
2016,08,12,11,30,18.20
2016,08,12,11,31,18.30
2016,08,12,11,32,18.30
2016,08,12,11,33,18.30
2016,08,12,11,34,18.30
2016,08,12,11,35,18.40
2016,08,12,11,36,18.30
2016,08,12,11,37,18.30
2016,08,12,11,38,18.30
2016,08,12,11,39,18.30
2016,08,12,11,40,18.30
2016,08,12,11,41,18.30
2016,08,12,11,42,18.40
2016,08,12,11,43,18.40
2016,08,12,11,44,18.50
2016,08,12,11,45,18.50
2016,08,12,11,46,18.60
2016,08,12,11,47,18.60
2016,08,12,11,48,18.60
2016,08,12,11,49,18.60
2016,08,12,11,50,18.70
2016,08,12,11,51,18.70
2016,08,12,11,52,18.70
2016,08,12,11,53,18.80
2016,08,12,11,54,18.80
2016,08,12,11,55,18.80
2016,08,12,11,56,18.80
2016,08,12,11,57,18.80
2016,08,12,11,58,18.80
2016,08,12,11,59,18.80
2016,08,12,12,00,18.80
2016,08,12,12,01,18.80
2016,08,12,12,02,18.80
2016,08,12,12,03,18.80
2016,08,12,12,04,18.80
2016,08,12,12,05,18.80
2016,08,12,12,06,18.80
2016,08,12,12,07,18.80
2016,08,12,12,08,18.80
2016,08,12,12,09,18.80
2016,08,12,12,10,18.80
2016,08,12,12,11,18.80
2016,08,12,12,12,18.80
2016,08,12,12,13,18.80
2016,08,12,12,14,18.80
2016,08,12,12,15,18.90
2016,08,12,12,16,18.90
2016,08,12,12,17,18.90
2016,08,12,12,18,18.90
2016,08,12,12,19,18.90
2016,08,12,12,20,18.90
2016,08,12,12,21,18.90
2016,08,12,12,22,18.90
2016,08,12,12,23,18.90
2016,08,12,12,24,18.90
2016,08,12,12,25,18.90
2016,08,12,12,26,19.00
2016,08,12,12,27,19.00
2016,08,12,12,28,19.10
2016,08,12,12,29,19.10
2016,08,12,12,30,19.10
2016,08,12,12,31,19.10
2016,08,12,12,32,19.20
2016,08,12,12,33,19.20
2016,08,12,12,34,19.20
2016,08,12,12,35,19.30
2016,08,12,12,36,19.30
2016,08,12,12,37,19.30
2016,08,12,12,38,19.30
2016,08,12,12,39,19.30
2016,08,12,12,40,19.30
2016,08,12,12,41,19.30
2016,08,12,12,42,19.30
2016,08,12,12,43,19.30
2016,08,12,12,44,19.30
2016,08,12,12,45,19.40
2016,08,12,12,46,19.40
2016,08,12,12,47,19.50
2016,08,12,12,48,19.50
2016,08,12,12,49,19.50
2016,08,12,12,50,19.60
2016,08,12,12,51,19.60
2016,08,12,12,52,19.60
2016,08,12,12,53,19.60
2016,08,12,12,54,19.60
2016,08,12,12,55,19.60
2016,08,12,12,56,19.60
2016,08,12,12,57,19.60
2016,08,12,12,58,19.70
2016,08,12,12,59,19.70
2016,08,12,13,00,19.70
2016,08,12,13,01,19.70
2016,08,12,13,02,19.70
2016,08,12,13,03,19.70
2016,08,12,13,04,19.70
2016,08,12,13,05,19.70
2016,08,12,13,06,19.70
2016,08,12,13,07,19.70
2016,08,12,13,08,19.70
2016,08,12,13,09,19.70
2016,08,12,13,10,19.70
2016,08,12,13,11,19.70
2016,08,12,13,12,19.70
2016,08,12,13,13,19.80
2016,08,12,13,14,19.80
2016,08,12,13,15,19.80
2016,08,12,13,16,19.80
2016,08,12,13,17,19.80
2016,08,12,13,18,19.80
2016,08,12,13,19,19.80
2016,08,12,13,20,19.80
2016,08,12,13,21,19.80
2016,08,12,13,22,19.80
2016,08,12,13,23,19.80
2016,08,12,13,24,19.80
2016,08,12,13,25,19.70
2016,08,12,13,26,19.50
2016,08,12,13,27,19.20
2016,08,12,13,28,19.00
2016,08,12,13,29,18.80
2016,08,12,13,30,18.80
2016,08,12,13,31,18.80
2016,08,12,13,32,18.80
2016,08,12,13,33,18.70
2016,08,12,13,34,18.70
2016,08,12,13,35,18.60
2016,08,12,13,36,18.60
2016,08,12,13,37,18.50
2016,08,12,13,38,18.50
2016,08,12,13,39,18.40
2016,08,12,13,40,18.30
2016,08,12,13,41,18.30
2016,08,12,13,42,18.30
2016,08,12,13,43,18.30
2016,08,12,13,44,18.30
2016,08,12,13,45,18.30
2016,08,12,13,46,18.30
2016,08,12,13,47,18.30
2016,08,12,13,48,18.30
2016,08,12,13,49,18.40
2016,08,12,13,50,18.40
2016,08,12,13,51,18.50
2016,08,12,13,52,18.50
2016,08,12,13,53,18.50
2016,08,12,13,54,18.60
2016,08,12,13,55,18.60
2016,08,12,13,56,18.60
2016,08,12,13,57,18.60
2016,08,12,13,58,18.60
2016,08,12,13,59,18.60
2016,08,12,14,00,18.60
2016,08,12,14,01,18.60
2016,08,12,14,02,18.60
2016,08,12,14,03,18.60
2016,08,12,14,04,18.60
2016,08,12,14,05,18.70
2016,08,12,14,06,18.80
2016,08,12,14,07,18.80
2016,08,12,14,08,18.80
2016,08,12,14,09,18.90
2016,08,12,14,10,18.90
2016,08,12,14,11,19.00
2016,08,12,14,12,19.10
2016,08,12,14,13,19.10
2016,08,12,14,14,19.20
2016,08,12,14,15,19.20
2016,08,12,14,16,19.20
2016,08,12,14,17,19.20
2016,08,12,14,18,19.20
2016,08,12,14,19,19.20
2016,08,12,14,20,19.30
2016,08,12,14,21,19.30
2016,08,12,14,22,19.30
2016,08,12,14,23,19.20
2016,08,12,14,24,19.30
2016,08,12,14,25,19.30
2016,08,12,14,26,19.30
2016,08,12,14,27,19.40
2016,08,12,14,28,19.40
2016,08,12,14,29,19.50
2016,08,12,14,30,19.60
2016,08,12,14,31,19.70
2016,08,12,14,32,19.80
2016,08,12,14,33,19.90
2016,08,12,14,34,20.00
2016,08,12,14,35,20.10
2016,08,12,14,36,20.10
2016,08,12,14,37,20.20
2016,08,12,14,38,20.30
2016,08,12,14,39,20.30
2016,08,12,14,40,20.30
2016,08,12,14,41,20.30
2016,08,12,14,42,20.30
2016,08,12,14,43,20.20
2016,08,12,14,44,20.20
2016,08,12,14,45,20.10
2016,08,12,14,46,19.90
2016,08,12,14,47,19.80
2016,08,12,14,48,19.70
2016,08,12,14,49,19.50
2016,08,12,14,50,19.30
2016,08,12,14,51,19.20
2016,08,12,14,52,19.10
2016,08,12,14,53,19.10
2016,08,12,14,54,19.10
2016,08,12,14,55,19.00
2016,08,12,14,56,19.00
2016,08,12,14,57,18.90
2016,08,12,14,58,18.90
2016,08,12,14,59,18.80
2016,08,12,15,00,18.80
2016,08,12,15,01,18.70
2016,08,12,15,02,18.70
2016,08,12,15,03,18.70
2016,08,12,15,04,18.60
2016,08,12,15,05,18.60
2016,08,12,15,06,18.60
2016,08,12,15,07,18.60
2016,08,12,15,08,18.60
2016,08,12,15,09,18.60
2016,08,12,15,10,18.50
2016,08,12,15,11,18.50
2016,08,12,15,12,18.50
2016,08,12,15,13,18.40
2016,08,12,15,14,18.40
2016,08,12,15,15,18.40
2016,08,12,15,16,18.40
2016,08,12,15,17,18.40
2016,08,12,15,18,18.40
2016,08,12,15,19,18.40
2016,08,12,15,20,18.40
2016,08,12,15,21,18.50
2016,08,12,15,22,18.60
2016,08,12,15,23,18.60
2016,08,12,15,24,18.70
2016,08,12,15,25,18.70
2016,08,12,15,26,18.70
2016,08,12,15,27,18.80
2016,08,12,15,28,18.90
2016,08,12,15,29,18.90
2016,08,12,15,30,18.90
2016,08,12,15,31,18.90
2016,08,12,15,32,18.90
2016,08,12,15,33,18.90
2016,08,12,15,34,18.90
2016,08,12,15,35,18.90
2016,08,12,15,36,18.90
2016,08,12,15,37,19.00
2016,08,12,15,38,19.00
2016,08,12,15,39,19.00
2016,08,12,15,40,19.00
2016,08,12,15,41,19.00
2016,08,12,15,42,19.10
2016,08,12,15,43,19.10
2016,08,12,15,44,19.10
2016,08,12,15,45,19.20
2016,08,12,15,46,19.20
2016,08,12,15,47,19.30
2016,08,12,15,48,19.30
2016,08,12,15,49,19.40
2016,08,12,15,50,19.60
2016,08,12,15,51,19.70
2016,08,12,15,52,19.90
2016,08,12,15,53,20.00
2016,08,12,15,54,20.10
2016,08,12,15,55,20.10
2016,08,12,15,56,20.10
2016,08,12,15,57,20.10
2016,08,12,15,58,20.00
2016,08,12,15,59,20.00
2016,08,12,16,00,19.90
2016,08,12,16,01,19.80
2016,08,12,16,02,19.80
2016,08,12,16,03,19.80
2016,08,12,16,04,19.70
2016,08,12,16,05,19.70
2016,08,12,16,06,19.60
2016,08,12,16,07,19.50
2016,08,12,16,08,19.50
2016,08,12,16,09,19.40
2016,08,12,16,10,19.30
2016,08,12,16,11,19.30
2016,08,12,16,12,19.30
2016,08,12,16,13,19.40
2016,08,12,16,14,19.40
2016,08,12,16,15,19.50
2016,08,12,16,16,19.60
2016,08,12,16,17,19.70
2016,08,12,16,18,19.70
2016,08,12,16,19,19.80
2016,08,12,16,20,19.90
2016,08,12,16,21,19.90
2016,08,12,16,22,19.90
2016,08,12,16,23,19.90
2016,08,12,16,24,19.90
2016,08,12,16,25,19.80
2016,08,12,16,26,19.80
2016,08,12,16,27,19.70
2016,08,12,16,28,19.70
2016,08,12,16,29,19.70
2016,08,12,16,30,19.70
2016,08,12,16,31,19.60
2016,08,12,16,32,19.60
2016,08,12,16,33,19.60
2016,08,12,16,34,19.60
2016,08,12,16,35,19.60
2016,08,12,16,36,19.60
2016,08,12,16,37,19.60
2016,08,12,16,38,19.50
2016,08,12,16,39,19.50
2016,08,12,16,40,19.40
2016,08,12,16,41,19.40
2016,08,12,16,42,19.30
2016,08,12,16,43,19.30
2016,08,12,16,44,19.20
2016,08,12,16,45,19.20
2016,08,12,16,46,19.10
2016,08,12,16,47,19.10
2016,08,12,16,48,19.00
2016,08,12,16,49,19.00
2016,08,12,16,50,19.00
2016,08,12,16,51,19.00
2016,08,12,16,52,19.00
2016,08,12,16,53,19.00
2016,08,12,16,54,19.00
2016,08,12,16,55,19.00
2016,08,12,16,56,19.00
2016,08,12,16,57,19.00
2016,08,12,16,58,19.10
2016,08,12,16,59,19.10
2016,08,12,17,00,19.10
2016,08,12,17,01,19.20
2016,08,12,17,02,19.20
2016,08,12,17,03,19.20
2016,08,12,17,04,19.30
2016,08,12,17,05,19.30
2016,08,12,17,06,19.40
2016,08,12,17,07,19.40
2016,08,12,17,08,19.40
2016,08,12,17,09,19.40
2016,08,12,17,10,19.40
2016,08,12,17,11,19.40
2016,08,12,17,12,19.50
2016,08,12,17,13,19.50
2016,08,12,17,14,19.50
2016,08,12,17,15,19.60
2016,08,12,17,16,19.60
2016,08,12,17,17,19.60
2016,08,12,17,18,19.70
2016,08,12,17,19,19.70